Time,TemperatureF,DewpointF,PressureIn,WindDirection,WindDirectionDegrees,WindSpeedMPH,WindSpeedGustMPH,Humidity,HourlyPrecipIn,Conditions,Clouds,dailyrainin,SolarRadiationWatts/m^2,SoftwareType,DateUTC
2013-02-05 00:00:00,42.2,30.9,29.99,South,186,6.0,7.0,64,0.00,,,0.00,0,Wunderground v.1.15,2013-02-05 05:00:00,
2013-02-05 00:05:00,42.3,30.6,29.99,SSE,155,6.0,7.0,63,0.00,,,0.00,0,Wunderground v.1.15,2013-02-05 05:05:00,
2013-02-05 00:10:00,42.4,30.7,29.99,SSE,162,6.0,6.0,63,0.00,,,0.00,0,Wunderground v.1.15,2013-02-05 05:10:00,
2013-02-05 00:15:00,42.4,29.9,29.99,SSW,203,6.0,6.0,61,0.00,,,0.00,0,Wunderground v.1.15,2013-02-05 05:15:00,
2013-02-05 00:20:00,42.5,30.4,29.98,SSW,192,5.0,5.0,62,0.00,,,0.00,0,Wunderground v.1.15,2013-02-05 05:20:00,
2013-02-05 00:25:00,42.6,30.5,29.98,SSW,205,4.0,5.0,62,0.00,,,0.00,0,Wunderground v.1.15,2013-02-05 05:25:00,
2013-02-05 00:30:00,42.7,30.2,29.98,SSW,198,4.0,4.0,61,0.00,,,0.00,0,Wunderground v.1.15,2013-02-05 05:30:00,
2013-02-05 00:35:00,42.7,30.2,29.98,SW,227,4.0,5.0,61,0.00,,,0.00,0,Wunderground v.1.15,2013-02-05 05:35:00,
2013-02-05 00:40:00,42.7,30.2,29.99,SSW,205,4.0,4.0,61,0.00,,,0.00,0,Wunderground v.1.15,2013-02-05 05:40:00,
2013-02-05 00:50:00,42.9,30.4,29.98,SW,234,3.0,3.0,61,0.00,,,0.00,0,Wunderground v.1.15,2013-02-05 05:50:00,
2013-02-05 00:55:00,42.9,30.8,29.98,SSW,198,3.0,5.0,62,0.00,,,0.00,0,Wunderground v.1.15,2013-02-05 05:55:00,
2013-02-05 01:00:00,42.9,30.8,29.98,SW,235,3.0,3.0,62,0.00,,,0.00,0,Wunderground v.1.15,2013-02-05 06:00:00,
2013-02-05 01:05:00,43.0,30.5,29.97,SSW,202,2.0,3.0,61,0.00,,,0.00,0,Wunderground v.1.15,2013-02-05 06:05:00,
2013-02-05 01:10:00,43.0,30.9,29.97,South,180,2.0,4.0,62,0.00,,,0.00,0,Wunderground v.1.15,2013-02-05 06:10:00,
2013-02-05 01:15:00,42.9,31.2,29.96,South,180,4.0,4.0,63,0.00,,,0.00,0,Wunderground v.1.15,2013-02-05 06:15:00,
2013-02-05 01:20:00,42.9,30.8,29.96,South,171,4.0,5.0,62,0.00,,,0.00,0,Wunderground v.1.15,2013-02-05 06:20:00,
2013-02-05 01:25:00,42.9,31.2,29.95,SSW,200,5.0,6.0,63,0.00,,,0.00,0,Wunderground v.1.15,2013-02-05 06:25:00,
2013-02-05 01:30:00,42.9,31.2,29.95,SSE,162,5.0,5.0,63,0.00,,,0.00,0,Wunderground v.1.15,2013-02-05 06:30:00,
2013-02-05 01:35:00,42.9,30.4,29.95,South,184,4.0,5.0,61,0.00,,,0.00,0,Wunderground v.1.15,2013-02-05 06:35:00,
2013-02-05 01:40:00,42.9,30.8,29.95,South,181,3.0,3.0,62,0.00,,,0.00,0,Wunderground v.1.15,2013-02-05 06:40:00,
2013-02-05 01:50:00,42.9,31.6,29.95,South,190,3.0,3.0,64,0.00,,,0.00,0,Wunderground v.1.15,2013-02-05 06:50:00,
2013-02-05 01:55:00,43.0,31.3,29.96,South,175,4.0,4.0,63,0.00,,,0.00,0,Wunderground v.1.15,2013-02-05 06:55:00,
2013-02-05 02:00:00,43.1,31.4,29.96,South,173,4.0,4.0,63,0.00,,,0.00,0,Wunderground v.1.15,2013-02-05 07:00:00,
2013-02-05 02:05:00,43.1,31.4,29.96,SW,214,4.0,4.0,63,0.00,,,0.00,0,Wunderground v.1.15,2013-02-05 07:05:00,
2013-02-05 02:10:00,43.2,31.4,29.96,South,188,3.0,5.0,63,0.00,,,0.00,0,Wunderground v.1.15,2013-02-05 07:10:00,
2013-02-05 02:15:00,43.2,31.4,29.96,SW,230,4.0,5.0,63,0.00,,,0.00,0,Wunderground v.1.15,2013-02-05 07:15:00,
2013-02-05 02:20:00,43.2,31.8,29.95,South,172,2.0,2.0,64,0.00,,,0.00,0,Wunderground v.1.15,2013-02-05 07:20:00,
2013-02-05 02:30:00,43.3,31.5,29.95,South,186,2.0,2.0,63,0.00,,,0.00,0,Wunderground v.1.15,2013-02-05 07:30:00,
2013-02-05 02:35:00,43.2,31.4,29.95,South,173,2.0,3.0,63,0.00,,,0.00,0,Wunderground v.1.15,2013-02-05 07:35:00,
2013-02-05 02:40:00,43.2,31.4,29.95,SSE,165,2.0,3.0,63,0.00,,,0.00,0,Wunderground v.1.15,2013-02-05 07:40:00,
2013-02-05 02:50:00,43.1,31.4,29.94,South,170,4.0,4.0,63,0.00,,,0.00,0,Wunderground v.1.15,2013-02-05 07:50:00,
2013-02-05 02:55:00,43.1,31.0,29.94,SSE,168,3.0,4.0,62,0.00,,,0.00,0,Wunderground v.1.15,2013-02-05 07:55:00,
2013-02-05 03:00:00,43.1,31.4,29.94,SSE,165,3.0,3.0,63,0.00,,,0.00,0,Wunderground v.1.15,2013-02-05 08:00:00,
2013-02-05 03:10:00,43.0,31.6,29.94,South,169,1.0,1.0,64,0.00,,,0.00,0,Wunderground v.1.15,2013-02-05 08:10:00,
2013-02-05 03:15:00,42.9,31.2,29.94,SSW,202,1.0,1.0,63,0.00,,,0.00,0,Wunderground v.1.15,2013-02-05 08:15:00,
2013-02-05 03:20:00,42.9,31.9,29.94,SSW,202,1.0,1.0,65,0.00,,,0.00,0,Wunderground v.1.15,2013-02-05 08:20:00,
2013-02-05 03:25:00,42.9,31.2,29.95,SSW,202,0.0,1.0,63,0.00,,,0.00,0,Wunderground v.1.15,2013-02-05 08:25:00,
2013-02-05 03:30:00,43.0,31.6,29.94,SSW,202,0.0,1.0,64,0.00,,,0.00,0,Wunderground v.1.15,2013-02-05 08:30:00,
2013-02-05 03:35:00,42.9,31.9,29.94,SSW,202,0.0,1.0,65,0.00,,,0.00,0,Wunderground v.1.15,2013-02-05 08:35:00,
2013-02-05 03:40:00,42.9,31.2,29.94,SSW,202,0.0,1.0,63,0.00,,,0.00,0,Wunderground v.1.15,2013-02-05 08:40:00,
2013-02-05 03:45:00,42.8,31.1,29.94,SSW,202,0.0,1.0,63,0.00,,,0.00,0,Wunderground v.1.15,2013-02-05 08:45:00,
2013-02-05 03:55:00,42.7,30.6,29.94,SE,140,1.0,1.0,62,0.00,,,0.00,0,Wunderground v.1.15,2013-02-05 08:55:00,
2013-02-05 04:00:00,42.7,31.0,29.94,SE,141,1.0,1.0,63,0.00,,,0.00,0,Wunderground v.1.15,2013-02-05 09:00:00,
2013-02-05 04:05:00,42.7,31.4,29.94,South,171,1.0,1.0,64,0.00,,,0.00,0,Wunderground v.1.15,2013-02-05 09:05:00,
2013-02-05 04:10:00,42.7,31.7,29.94,SSW,205,2.0,2.0,65,0.00,,,0.00,0,Wunderground v.1.15,2013-02-05 09:10:00,
2013-02-05 04:15:00,42.8,32.2,29.94,SSW,205,1.0,2.0,66,0.00,,,0.00,0,Wunderground v.1.15,2013-02-05 09:15:00,
2013-02-05 04:20:00,42.8,32.2,29.93,SSW,205,0.0,1.0,66,0.00,,,0.00,0,Wunderground v.1.15,2013-02-05 09:20:00,
2013-02-05 04:30:00,42.9,32.3,29.93,SSE,159,1.0,1.0,66,0.00,,,0.00,0,Wunderground v.1.15,2013-02-05 09:30:00,
2013-02-05 04:35:00,42.9,31.6,29.93,South,186,1.0,1.0,64,0.00,,,0.00,0,Wunderground v.1.15,2013-02-05 09:35:00,
2013-02-05 04:40:00,42.9,31.6,29.93,South,186,0.0,1.0,64,0.00,,,0.00,0,Wunderground v.1.15,2013-02-05 09:40:00,
2013-02-05 04:45:00,42.9,32.3,29.93,South,186,0.0,1.0,66,0.00,,,0.00,0,Wunderground v.1.15,2013-02-05 09:45:00,
2013-02-05 04:55:00,42.4,32.2,29.93,South,186,0.0,1.0,67,0.00,,,0.00,0,Wunderground v.1.15,2013-02-05 09:55:00,
2013-02-05 05:00:00,42.2,31.6,29.93,South,186,0.0,1.0,66,0.00,,,0.00,0,Wunderground v.1.15,2013-02-05 10:00:00,
2013-02-05 05:05:00,42.0,32.2,29.93,South,186,0.0,1.0,68,0.00,,,0.00,0,Wunderground v.1.15,2013-02-05 10:05:00,
2013-02-05 05:10:00,41.9,31.7,29.93,South,186,0.0,1.0,67,0.00,,,0.00,0,Wunderground v.1.15,2013-02-05 10:10:00,
2013-02-05 05:15:00,41.8,32.0,29.93,South,186,0.0,1.0,68,0.00,,,0.00,0,Wunderground v.1.15,2013-02-05 10:15:00,
2013-02-05 05:20:00,41.7,33.7,29.94,South,186,0.0,1.0,73,0.00,,,0.00,0,Wunderground v.1.15,2013-02-05 10:20:00,
2013-02-05 05:25:00,41.5,33.1,29.94,South,186,0.0,1.0,72,0.00,,,0.00,0,Wunderground v.1.15,2013-02-05 10:25:00,
2013-02-05 05:30:00,41.5,33.8,29.94,South,186,0.0,1.0,74,0.00,,,0.00,0,Wunderground v.1.15,2013-02-05 10:30:00,
2013-02-05 05:40:00,41.8,32.4,29.93,South,186,0.0,1.0,69,0.00,,,0.00,0,Wunderground v.1.15,2013-02-05 10:40:00,
2013-02-05 05:45:00,42.0,32.2,29.93,South,186,0.0,1.0,68,0.00,,,0.00,0,Wunderground v.1.15,2013-02-05 10:45:00,
2013-02-05 05:55:00,42.3,33.2,29.94,South,186,0.0,1.0,70,0.00,,,0.00,0,Wunderground v.1.15,2013-02-05 10:55:00,
2013-02-05 06:00:00,42.4,32.2,29.94,South,186,0.0,1.0,67,0.00,,,0.00,0,Wunderground v.1.15,2013-02-05 11:00:00,
2013-02-05 06:05:00,42.5,33.4,29.94,South,186,0.0,1.0,70,0.00,,,0.00,0,Wunderground v.1.15,2013-02-05 11:05:00,
2013-02-05 06:15:00,42.4,32.2,29.93,South,186,0.0,1.0,67,0.00,,,0.00,0,Wunderground v.1.15,2013-02-05 11:15:00,
2013-02-05 06:20:00,42.5,32.3,29.93,South,172,0.0,3.0,67,0.00,,,0.00,0,Wunderground v.1.15,2013-02-05 11:20:00,
2013-02-05 06:25:00,42.7,32.9,29.94,South,188,2.0,3.0,68,0.00,,,0.00,0,Wunderground v.1.15,2013-02-05 11:25:00,
2013-02-05 06:30:00,42.8,32.6,29.93,South,190,3.0,3.0,67,0.00,,,0.00,0,Wunderground v.1.15,2013-02-05 11:30:00,
2013-02-05 06:35:00,42.9,32.7,29.94,SSW,211,3.0,6.0,67,0.00,,,0.00,0,Wunderground v.1.15,2013-02-05 11:35:00,
2013-02-05 06:45:00,43.1,32.9,29.93,South,190,3.0,3.0,67,0.00,,,0.00,0,Wunderground v.1.15,2013-02-05 11:45:00,
2013-02-05 06:50:00,43.1,32.5,29.93,SSW,194,2.0,5.0,66,0.00,,,0.00,0,Wunderground v.1.15,2013-02-05 11:50:00,
2013-02-05 07:00:00,43.2,33.0,29.94,SSW,200,3.0,3.0,67,0.00,,,0.00,0,Wunderground v.1.15,2013-02-05 12:00:00,
2013-02-05 07:05:00,43.2,32.2,29.94,WSW,239,3.0,3.0,65,0.00,,,0.00,0,Wunderground v.1.15,2013-02-05 12:05:00,
2013-02-05 07:10:00,43.3,32.3,29.95,South,178,3.0,4.0,65,0.00,,,0.00,0,Wunderground v.1.15,2013-02-05 12:10:00,
2013-02-05 07:15:00,43.3,33.1,29.95,SSW,204,2.0,4.0,67,0.00,,,0.00,0,Wunderground v.1.15,2013-02-05 12:15:00,
2013-02-05 07:20:00,43.3,32.3,29.95,SW,232,1.0,1.0,65,0.00,,,0.00,5,Wunderground v.1.15,2013-02-05 12:20:00,
2013-02-05 07:25:00,43.3,32.7,29.95,SSW,207,1.0,1.0,66,0.00,,,0.00,7,Wunderground v.1.15,2013-02-05 12:25:00,
2013-02-05 07:35:00,43.3,32.3,29.95,South,182,1.0,2.0,65,0.00,,,0.00,12,Wunderground v.1.15,2013-02-05 12:35:00,
2013-02-05 07:40:00,43.2,32.6,29.95,South,183,0.0,1.0,66,0.00,,,0.00,21,Wunderground v.1.15,2013-02-05 12:40:00,
2013-02-05 07:45:00,43.2,32.2,29.95,SSW,213,0.0,2.0,65,0.00,,,0.00,23,Wunderground v.1.15,2013-02-05 12:45:00,
2013-02-05 07:50:00,43.2,32.6,29.95,SSW,198,1.0,2.0,66,0.00,,,0.00,18,Wunderground v.1.15,2013-02-05 12:50:00,
2013-02-05 07:55:00,43.2,32.6,29.96,SSW,205,3.0,3.0,66,0.00,,,0.00,32,Wunderground v.1.15,2013-02-05 12:55:00,
2013-02-05 08:00:00,43.1,32.9,29.97,South,184,3.0,4.0,67,0.00,,,0.00,33,Wunderground v.1.15,2013-02-05 13:00:00,
2013-02-05 08:05:00,43.1,33.3,29.97,SSE,159,2.0,4.0,68,0.00,,,0.00,19,Wunderground v.1.15,2013-02-05 13:05:00,
2013-02-05 08:10:00,43.0,32.8,29.96,South,176,2.0,3.0,67,0.00,,,0.00,16,Wunderground v.1.15,2013-02-05 13:10:00,
2013-02-05 08:20:00,43.0,33.2,29.96,SSW,202,1.0,1.0,68,0.00,,,0.00,33,Wunderground v.1.15,2013-02-05 13:20:00,
2013-02-05 08:25:00,43.1,32.9,29.96,SSW,212,1.0,1.0,67,0.00,,,0.00,54,Wunderground v.1.15,2013-02-05 13:25:00,
2013-02-05 08:30:00,43.1,33.3,29.96,SSW,212,1.0,1.0,68,0.00,,,0.00,49,Wunderground v.1.15,2013-02-05 13:30:00,
2013-02-05 08:40:00,43.2,33.3,29.97,West,273,1.0,1.0,68,0.00,,,0.00,77,Wunderground v.1.15,2013-02-05 13:40:00,
2013-02-05 08:45:00,43.2,33.0,29.97,SSW,200,1.0,1.0,67,0.00,,,0.00,86,Wunderground v.1.15,2013-02-05 13:45:00,
2013-02-05 08:50:00,43.3,33.1,29.96,SSW,200,0.0,1.0,67,0.00,,,0.00,91,Wunderground v.1.15,2013-02-05 13:50:00,
2013-02-05 08:55:00,43.5,33.3,29.96,South,187,2.0,6.0,67,0.00,,,0.00,109,Wunderground v.1.15,2013-02-05 13:55:00,
2013-02-05 09:00:00,43.6,33.4,29.96,SSW,210,4.0,4.0,67,0.00,,,0.00,114,Wunderground v.1.15,2013-02-05 14:00:00,
2013-02-05 09:10:00,44.0,33.7,29.95,SSW,194,5.0,5.0,67,0.00,,,0.00,139,Wunderground v.1.15,2013-02-05 14:10:00,
2013-02-05 09:15:00,44.1,33.5,29.95,South,175,3.0,5.0,66,0.00,,,0.00,151,Wunderground v.1.15,2013-02-05 14:15:00,
2013-02-05 09:20:00,44.3,34.0,29.96,WSW,250,3.0,6.0,67,0.00,,,0.00,142,Wunderground v.1.15,2013-02-05 14:20:00,
2013-02-05 09:25:00,44.5,34.2,29.96,SW,227,4.0,6.0,67,0.00,,,0.00,137,Wunderground v.1.15,2013-02-05 14:25:00,
2013-02-05 09:30:00,44.6,33.2,29.96,SSW,209,4.0,5.0,64,0.00,,,0.00,190,Wunderground v.1.15,2013-02-05 14:30:00,
2013-02-05 09:35:00,44.9,33.8,29.97,SW,214,4.0,6.0,65,0.00,,,0.00,193,Wunderground v.1.15,2013-02-05 14:35:00,
2013-02-05 09:40:00,45.1,34.0,29.97,SW,232,5.0,5.0,65,0.00,,,0.00,176,Wunderground v.1.15,2013-02-05 14:40:00,
2013-02-05 09:45:00,45.3,34.2,29.97,SSW,204,6.0,7.0,65,0.00,,,0.00,127,Wunderground v.1.15,2013-02-05 14:45:00,
2013-02-05 09:50:00,45.4,33.9,29.97,SSW,195,5.0,6.0,64,0.00,,,0.00,93,Wunderground v.1.15,2013-02-05 14:50:00,
2013-02-05 10:00:00,45.6,34.1,29.97,WSW,238,6.0,6.0,64,0.00,,,0.00,93,Wunderground v.1.15,2013-02-05 15:00:00,
2013-02-05 10:05:00,45.8,34.3,29.96,SW,232,5.0,6.0,64,0.00,,,0.00,118,Wunderground v.1.15,2013-02-05 15:05:00,
2013-02-05 10:15:00,46.0,34.1,29.96,SW,231,3.0,5.0,63,0.00,,,0.00,113,Wunderground v.1.15,2013-02-05 15:15:00,
2013-02-05 10:20:00,46.0,34.1,29.97,SW,215,3.0,3.0,63,0.00,,,0.00,90,Wunderground v.1.15,2013-02-05 15:20:00,
2013-02-05 10:25:00,46.2,35.1,29.97,SSW,202,3.0,3.0,65,0.00,,,0.00,95,Wunderground v.1.15,2013-02-05 15:25:00,
2013-02-05 10:30:00,46.2,34.7,29.97,SW,221,2.0,2.0,64,0.00,,,0.00,100,Wunderground v.1.15,2013-02-05 15:30:00,
2013-02-05 10:35:00,46.3,35.2,29.97,SSW,210,2.0,7.0,65,0.00,,,0.00,102,Wunderground v.1.15,2013-02-05 15:35:00,
2013-02-05 10:40:00,46.4,34.9,29.97,WSW,255,3.0,3.0,64,0.00,,,0.00,127,Wunderground v.1.15,2013-02-05 15:40:00,
2013-02-05 10:45:00,46.5,34.2,29.97,SW,225,2.0,3.0,62,0.00,,,0.00,209,Wunderground v.1.15,2013-02-05 15:45:00,
2013-02-05 10:50:00,46.8,35.3,29.97,SW,224,1.0,1.0,64,0.00,,,0.00,200,Wunderground v.1.15,2013-02-05 15:50:00,
2013-02-05 10:55:00,47.0,35.0,29.96,SW,219,1.0,5.0,63,0.00,,,0.00,232,Wunderground v.1.15,2013-02-05 15:55:00,
2013-02-05 11:00:00,47.4,35.4,29.97,South,191,2.0,2.0,63,0.00,,,0.00,223,Wunderground v.1.15,2013-02-05 16:00:00,
2013-02-05 11:10:00,48.1,34.9,29.96,South,189,2.0,4.0,60,0.00,,,0.00,279,Wunderground v.1.15,2013-02-05 16:10:00,
2013-02-05 11:15:00,48.5,34.8,29.96,WSW,254,3.0,4.0,59,0.00,,,0.00,265,Wunderground v.1.15,2013-02-05 16:15:00,
2013-02-05 11:20:00,48.7,35.8,29.96,SW,232,2.0,4.0,61,0.00,,,0.00,251,Wunderground v.1.15,2013-02-05 16:20:00,
2013-02-05 11:30:00,49.0,35.7,29.95,SSW,207,1.0,1.0,60,0.00,,,0.00,192,Wunderground v.1.15,2013-02-05 16:30:00,
2013-02-05 11:35:00,49.1,35.4,29.95,South,191,0.0,8.0,59,0.00,,,0.00,118,Wunderground v.1.15,2013-02-05 16:35:00,
2013-02-05 11:40:00,49.1,35.4,29.95,SW,217,3.0,4.0,59,0.00,,,0.00,146,Wunderground v.1.15,2013-02-05 16:40:00,
2013-02-05 11:45:00,49.2,36.7,29.95,SW,215,4.0,4.0,62,0.00,,,0.00,218,Wunderground v.1.15,2013-02-05 16:45:00,
2013-02-05 11:55:00,49.2,35.0,29.95,WSW,248,3.0,4.0,58,0.00,,,0.00,207,Wunderground v.1.15,2013-02-05 16:55:00,
2013-02-05 12:00:00,49.2,35.9,29.95,SW,236,5.0,5.0,60,0.00,,,0.00,165,Wunderground v.1.15,2013-02-05 17:00:00,
2013-02-05 12:05:00,49.3,35.1,29.95,WSW,237,5.0,5.0,58,0.00,,,0.00,114,Wunderground v.1.15,2013-02-05 17:05:00,
2013-02-05 12:10:00,49.4,35.7,29.94,WSW,244,5.0,5.0,59,0.00,,,0.00,158,Wunderground v.1.15,2013-02-05 17:10:00,
2013-02-05 12:15:00,49.4,36.9,29.94,SW,233,4.0,5.0,62,0.00,,,0.00,192,Wunderground v.1.15,2013-02-05 17:15:00,
2013-02-05 12:25:00,49.8,36.0,29.93,SSW,213,2.0,5.0,59,0.00,,,0.00,287,Wunderground v.1.15,2013-02-05 17:25:00,
2013-02-05 12:30:00,50.2,36.4,29.94,SW,219,3.0,4.0,59,0.00,,,0.00,237,Wunderground v.1.15,2013-02-05 17:30:00,
2013-02-05 12:35:00,50.3,36.9,29.93,WSW,256,4.0,5.0,60,0.00,,,0.00,283,Wunderground v.1.15,2013-02-05 17:35:00,
2013-02-05 12:40:00,50.4,36.2,29.93,SW,222,3.0,3.0,58,0.00,,,0.00,195,Wunderground v.1.15,2013-02-05 17:40:00,
2013-02-05 12:45:00,50.6,35.9,29.93,SW,223,4.0,7.0,57,0.00,,,0.00,295,Wunderground v.1.15,2013-02-05 17:45:00,
2013-02-05 12:50:00,50.8,36.1,29.92,West,280,4.0,10.0,57,0.00,,,0.00,281,Wunderground v.1.15,2013-02-05 17:50:00,
2013-02-05 12:55:00,50.9,35.3,29.92,WNW,288,4.0,10.0,55,0.00,,,0.00,485,Wunderground v.1.15,2013-02-05 17:55:00,
2013-02-05 13:00:00,51.3,35.7,29.92,WSW,252,5.0,5.0,55,0.00,,,0.00,770,Wunderground v.1.15,2013-02-05 18:00:00,
2013-02-05 13:05:00,51.7,35.1,29.92,West,278,5.0,5.0,53,0.00,,,0.00,881,Wunderground v.1.15,2013-02-05 18:05:00,
2013-02-05 13:15:00,51.0,36.3,29.91,SW,215,3.0,6.0,57,0.00,,,0.00,301,Wunderground v.1.15,2013-02-05 18:15:00,
2013-02-05 13:20:00,51.7,36.5,29.91,WSW,252,2.0,2.0,56,0.00,,,0.00,258,Wunderground v.1.15,2013-02-05 18:20:00,
2013-02-05 13:25:00,52.2,36.5,29.91,West,266,3.0,3.0,55,0.00,,,0.00,519,Wunderground v.1.15,2013-02-05 18:25:00,
2013-02-05 13:30:00,51.9,37.1,29.90,West,275,2.0,2.0,57,0.00,,,0.00,427,Wunderground v.1.15,2013-02-05 18:30:00,
2013-02-05 13:35:00,52.1,37.3,29.89,West,281,0.0,2.0,57,0.00,,,0.00,510,Wunderground v.1.15,2013-02-05 18:35:00,
2013-02-05 13:40:00,51.9,38.0,29.89,WSW,256,1.0,1.0,59,0.00,,,0.00,413,Wunderground v.1.15,2013-02-05 18:40:00,
2013-02-05 13:45:00,52.1,37.8,29.89,WNW,296,3.0,4.0,58,0.00,,,0.00,392,Wunderground v.1.15,2013-02-05 18:45:00,
2013-02-05 13:50:00,51.4,38.8,29.89,NW,308,4.0,5.0,62,0.00,,,0.00,367,Wunderground v.1.15,2013-02-05 18:50:00,
2013-02-05 13:55:00,51.4,36.7,29.89,WNW,296,4.0,5.0,57,0.00,,,0.00,439,Wunderground v.1.15,2013-02-05 18:55:00,
2013-02-05 14:00:00,50.7,39.4,29.89,NW,314,3.0,5.0,65,0.00,,,0.00,577,Wunderground v.1.15,2013-02-05 19:00:00,
2013-02-05 14:05:00,51.7,37.8,29.88,NW,317,3.0,5.0,59,0.00,,,0.00,545,Wunderground v.1.15,2013-02-05 19:05:00,
2013-02-05 14:15:00,53.0,39.5,29.88,WNW,287,3.0,3.0,60,0.00,,,0.00,533,Wunderground v.1.15,2013-02-05 19:15:00,
2013-02-05 14:20:00,53.0,38.2,29.88,West,267,3.0,3.0,57,0.00,,,0.00,524,Wunderground v.1.15,2013-02-05 19:20:00,
2013-02-05 14:25:00,53.4,38.5,29.88,SW,235,2.0,9.0,57,0.00,,,0.00,515,Wunderground v.1.15,2013-02-05 19:25:00,
2013-02-05 14:30:00,54.3,38.0,29.88,SW,226,4.0,7.0,54,0.00,,,0.00,503,Wunderground v.1.15,2013-02-05 19:30:00,
2013-02-05 14:35:00,54.0,38.6,29.88,SW,229,6.0,7.0,56,0.00,,,0.00,494,Wunderground v.1.15,2013-02-05 19:35:00,
2013-02-05 14:45:00,54.8,38.5,29.88,SW,229,1.0,4.0,54,0.00,,,0.00,230,Wunderground v.1.15,2013-02-05 19:45:00,
2013-02-05 14:55:00,54.0,38.6,29.88,West,267,3.0,5.0,56,0.00,,,0.00,220,Wunderground v.1.15,2013-02-05 19:55:00,
2013-02-05 15:00:00,53.8,38.5,29.88,NW,315,4.0,4.0,56,0.00,,,0.00,135,Wunderground v.1.15,2013-02-05 20:00:00,
2013-02-05 15:10:00,54.8,38.5,29.88,WSW,244,4.0,6.0,54,0.00,,,0.00,471,Wunderground v.1.15,2013-02-05 20:10:00,
2013-02-05 15:15:00,54.9,38.6,29.87,WSW,237,4.0,6.0,54,0.00,,,0.00,445,Wunderground v.1.15,2013-02-05 20:15:00,
2013-02-05 15:25:00,54.7,37.4,29.88,SW,232,2.0,5.0,52,0.00,,,0.00,148,Wunderground v.1.15,2013-02-05 20:25:00,
2013-02-05 15:30:00,54.8,38.5,29.88,WSW,247,4.0,4.0,54,0.00,,,0.00,148,Wunderground v.1.15,2013-02-05 20:30:00,
2013-02-05 15:35:00,54.8,38.5,29.88,SW,231,4.0,4.0,54,0.00,,,0.00,120,Wunderground v.1.15,2013-02-05 20:35:00,
2013-02-05 15:40:00,55.4,37.6,29.87,SW,223,5.0,7.0,51,0.00,,,0.00,348,Wunderground v.1.15,2013-02-05 20:40:00,
2013-02-05 15:50:00,56.2,37.3,29.87,SW,231,4.0,4.0,49,0.00,,,0.00,311,Wunderground v.1.15,2013-02-05 20:50:00,
2013-02-05 15:55:00,55.9,37.5,29.87,SSW,196,5.0,5.0,50,0.00,,,0.00,297,Wunderground v.1.15,2013-02-05 20:55:00,
2013-02-05 16:05:00,56.4,38.5,29.87,WSW,244,3.0,5.0,51,0.00,,,0.00,271,Wunderground v.1.15,2013-02-05 21:05:00,
2013-02-05 16:10:00,56.7,38.3,29.87,SSW,209,2.0,8.0,50,0.00,,,0.00,265,Wunderground v.1.15,2013-02-05 21:10:00,
2013-02-05 16:15:00,57.0,37.0,29.88,WSW,250,4.0,8.0,47,0.00,,,0.00,260,Wunderground v.1.15,2013-02-05 21:15:00,
2013-02-05 16:20:00,56.5,37.0,29.88,WSW,246,5.0,5.0,48,0.00,,,0.00,204,Wunderground v.1.15,2013-02-05 21:20:00,
2013-02-05 16:25:00,56.2,37.8,29.87,West,265,4.0,7.0,50,0.00,,,0.00,193,Wunderground v.1.15,2013-02-05 21:25:00,
2013-02-05 16:30:00,56.4,37.5,29.88,WSW,250,5.0,5.0,49,0.00,,,0.00,72,Wunderground v.1.15,2013-02-05 21:30:00,
2013-02-05 16:35:00,56.0,37.6,29.88,WSW,244,5.0,5.0,50,0.00,,,0.00,156,Wunderground v.1.15,2013-02-05 21:35:00,
2013-02-05 16:40:00,56.1,37.7,29.88,WSW,239,4.0,4.0,50,0.00,,,0.00,160,Wunderground v.1.15,2013-02-05 21:40:00,
2013-02-05 16:50:00,56.3,37.4,29.88,WSW,244,3.0,3.0,49,0.00,,,0.00,88,Wunderground v.1.15,2013-02-05 21:50:00,
2013-02-05 16:55:00,56.2,37.3,29.88,SW,234,3.0,3.0,49,0.00,,,0.00,107,Wunderground v.1.15,2013-02-05 21:55:00,
2013-02-05 17:00:00,56.2,37.3,29.88,WSW,244,3.0,4.0,49,0.00,,,0.00,67,Wunderground v.1.15,2013-02-05 22:00:00,
2013-02-05 17:05:00,56.2,38.3,29.89,SW,232,2.0,4.0,51,0.00,,,0.00,54,Wunderground v.1.15,2013-02-05 22:05:00,
2013-02-05 17:10:00,56.0,38.1,29.89,WSW,240,1.0,1.0,51,0.00,,,0.00,35,Wunderground v.1.15,2013-02-05 22:10:00,
2013-02-05 17:15:00,55.7,37.8,29.89,SW,236,1.0,1.0,51,0.00,,,0.00,35,Wunderground v.1.15,2013-02-05 22:15:00,
2013-02-05 17:20:00,55.5,38.1,29.89,SW,236,1.0,1.0,52,0.00,,,0.00,32,Wunderground v.1.15,2013-02-05 22:20:00,
2013-02-05 17:25:00,55.3,37.5,29.88,SW,232,0.0,1.0,51,0.00,,,0.00,18,Wunderground v.1.15,2013-02-05 22:25:00,
2013-02-05 17:35:00,55.0,37.7,29.88,SW,232,0.0,1.0,52,0.00,,,0.00,7,Wunderground v.1.15,2013-02-05 22:35:00,
2013-02-05 17:40:00,54.6,39.7,29.88,SW,232,0.0,1.0,57,0.00,,,0.00,0,Wunderground v.1.15,2013-02-05 22:40:00,
2013-02-05 17:45:00,54.0,39.5,29.88,SW,232,0.0,1.0,58,0.00,,,0.00,0,Wunderground v.1.15,2013-02-05 22:45:00,
2013-02-05 17:50:00,53.2,37.9,29.88,SW,232,0.0,1.0,56,0.00,,,0.00,0,Wunderground v.1.15,2013-02-05 22:50:00,
2013-02-05 17:55:00,52.6,37.8,29.89,SW,232,0.0,1.0,57,0.00,,,0.00,0,Wunderground v.1.15,2013-02-05 22:55:00,
2013-02-05 18:00:00,52.2,39.1,29.89,SW,232,0.0,1.0,61,0.00,,,0.00,0,Wunderground v.1.15,2013-02-05 23:00:00,
2013-02-05 18:05:00,51.5,38.1,29.89,SW,232,0.0,1.0,60,0.00,,,0.00,0,Wunderground v.1.15,2013-02-05 23:05:00,
2013-02-05 18:10:00,51.1,37.3,29.89,SW,232,0.0,1.0,59,0.00,,,0.00,0,Wunderground v.1.15,2013-02-05 23:10:00,
2013-02-05 18:15:00,51.0,37.6,29.89,SW,232,0.0,1.0,60,0.00,,,0.00,0,Wunderground v.1.15,2013-02-05 23:15:00,
2013-02-05 18:25:00,50.6,39.7,29.89,SW,232,0.0,1.0,66,0.00,,,0.00,0,Wunderground v.1.15,2013-02-05 23:25:00,
2013-02-05 18:30:00,50.2,38.9,29.89,SW,232,0.0,1.0,65,0.00,,,0.00,0,Wunderground v.1.15,2013-02-05 23:30:00,
2013-02-05 18:35:00,49.9,38.6,29.89,SW,232,0.0,1.0,65,0.00,,,0.00,0,Wunderground v.1.15,2013-02-05 23:35:00,
2013-02-05 18:40:00,49.5,38.6,29.90,SW,232,0.0,1.0,66,0.00,,,0.00,0,Wunderground v.1.15,2013-02-05 23:40:00,
2013-02-05 18:45:00,49.0,38.5,29.90,SW,232,0.0,1.0,67,0.00,,,0.00,0,Wunderground v.1.15,2013-02-05 23:45:00,
2013-02-05 18:50:00,48.5,37.7,29.90,SW,232,0.0,1.0,66,0.00,,,0.00,0,Wunderground v.1.15,2013-02-05 23:50:00,
2013-02-05 18:55:00,47.8,37.7,29.91,SW,232,0.0,1.0,68,0.00,,,0.00,0,Wunderground v.1.15,2013-02-05 23:55:00,
2013-02-05 19:00:00,47.0,37.0,29.91,SW,232,0.0,1.0,68,0.00,,,0.00,0,Wunderground v.1.15,2013-02-06 00:00:00,
2013-02-05 19:05:00,46.6,36.6,29.91,SW,232,0.0,1.0,68,0.00,,,0.00,0,Wunderground v.1.15,2013-02-06 00:05:00,
2013-02-05 19:15:00,45.9,36.7,29.91,SW,232,0.0,1.0,70,0.00,,,0.00,0,Wunderground v.1.15,2013-02-06 00:15:00,
2013-02-05 19:20:00,45.8,36.6,29.91,SW,232,0.0,1.0,70,0.00,,,0.00,0,Wunderground v.1.15,2013-02-06 00:20:00,
2013-02-05 19:25:00,45.5,36.6,29.92,SW,232,0.0,1.0,71,0.00,,,0.00,0,Wunderground v.1.15,2013-02-06 00:25:00,
2013-02-05 19:30:00,45.2,36.7,29.92,SW,232,0.0,1.0,72,0.00,,,0.00,0,Wunderground v.1.15,2013-02-06 00:30:00,
2013-02-05 19:35:00,45.0,36.9,29.92,SW,232,0.0,1.0,73,0.00,,,0.00,0,Wunderground v.1.15,2013-02-06 00:35:00,
2013-02-05 19:40:00,45.0,37.6,29.92,SW,232,0.0,1.0,75,0.00,,,0.00,0,Wunderground v.1.15,2013-02-06 00:40:00,
2013-02-05 19:45:00,44.9,37.8,29.93,SW,232,0.0,1.0,76,0.00,,,0.00,0,Wunderground v.1.15,2013-02-06 00:45:00,
2013-02-05 19:50:00,44.7,37.6,29.93,SW,232,0.0,1.0,76,0.00,,,0.00,0,Wunderground v.1.15,2013-02-06 00:50:00,
2013-02-05 19:55:00,44.3,37.5,29.93,SW,232,0.0,1.0,77,0.00,,,0.00,0,Wunderground v.1.15,2013-02-06 00:55:00,
2013-02-05 20:00:00,44.0,37.6,29.93,SW,232,0.0,1.0,78,0.00,,,0.00,0,Wunderground v.1.15,2013-02-06 01:00:00,
2013-02-05 20:10:00,43.7,37.9,29.93,SW,232,0.0,1.0,80,0.00,,,0.00,0,Wunderground v.1.15,2013-02-06 01:10:00,
2013-02-05 20:15:00,43.5,38.7,29.93,SW,232,0.0,1.0,83,0.00,,,0.00,0,Wunderground v.1.15,2013-02-06 01:15:00,
2013-02-05 20:20:00,43.2,38.4,29.93,SW,232,0.0,1.0,83,0.00,,,0.00,0,Wunderground v.1.15,2013-02-06 01:20:00,
2013-02-05 20:25:00,42.9,38.1,29.93,SW,232,0.0,1.0,83,0.00,,,0.00,0,Wunderground v.1.15,2013-02-06 01:25:00,
2013-02-05 20:35:00,42.4,37.9,29.93,SW,232,0.0,1.0,84,0.00,,,0.00,0,Wunderground v.1.15,2013-02-06 01:35:00,
2013-02-05 20:40:00,42.2,38.0,29.93,SW,232,0.0,1.0,85,0.00,,,0.00,0,Wunderground v.1.15,2013-02-06 01:40:00,
2013-02-05 20:50:00,41.8,37.9,29.94,SW,232,0.0,1.0,86,0.00,,,0.00,0,Wunderground v.1.15,2013-02-06 01:50:00,
2013-02-05 20:55:00,41.7,37.8,29.94,SW,232,0.0,1.0,86,0.00,,,0.00,0,Wunderground v.1.15,2013-02-06 01:55:00,
2013-02-05 21:00:00,41.5,37.6,29.94,SW,232,0.0,1.0,86,0.00,,,0.00,0,Wunderground v.1.15,2013-02-06 02:00:00,
2013-02-05 21:05:00,41.2,37.3,29.94,SW,232,0.0,1.0,86,0.00,,,0.00,0,Wunderground v.1.15,2013-02-06 02:05:00,
2013-02-05 21:15:00,40.9,37.3,29.94,SW,232,0.0,1.0,87,0.00,,,0.00,0,Wunderground v.1.15,2013-02-06 02:15:00,
2013-02-05 21:20:00,40.8,37.5,29.95,SW,232,0.0,1.0,88,0.00,,,0.00,0,Wunderground v.1.15,2013-02-06 02:20:00,
2013-02-05 21:25:00,40.6,37.3,29.95,SW,232,0.0,1.0,88,0.00,,,0.00,0,Wunderground v.1.15,2013-02-06 02:25:00,
2013-02-05 21:30:00,40.4,37.1,29.95,SW,232,0.0,1.0,88,0.00,,,0.00,0,Wunderground v.1.15,2013-02-06 02:30:00,
2013-02-05 21:35:00,40.2,36.9,29.94,SW,232,0.0,1.0,88,0.00,,,0.00,0,Wunderground v.1.15,2013-02-06 02:35:00,
2013-02-05 21:40:00,40.0,36.7,29.94,SW,232,0.0,1.0,88,0.00,,,0.00,0,Wunderground v.1.15,2013-02-06 02:40:00,
2013-02-05 21:45:00,39.7,36.4,29.95,SW,232,0.0,1.0,88,0.00,,,0.00,0,Wunderground v.1.15,2013-02-06 02:45:00,
2013-02-05 21:55:00,39.2,35.9,29.95,SW,232,0.0,1.0,88,0.00,,,0.00,0,Wunderground v.1.15,2013-02-06 02:55:00,
2013-02-05 22:00:00,38.9,35.6,29.95,SW,232,0.0,1.0,88,0.00,,,0.00,0,Wunderground v.1.15,2013-02-06 03:00:00,
2013-02-05 22:10:00,38.4,35.4,29.95,SW,232,0.0,1.0,89,0.00,,,0.00,0,Wunderground v.1.15,2013-02-06 03:10:00,
2013-02-05 22:20:00,38.2,35.5,29.95,SW,232,0.0,1.0,90,0.00,,,0.00,0,Wunderground v.1.15,2013-02-06 03:20:00,
2013-02-05 22:25:00,38.1,35.4,29.95,SW,232,0.0,1.0,90,0.00,,,0.00,0,Wunderground v.1.15,2013-02-06 03:25:00,
2013-02-05 22:30:00,38.0,35.3,29.95,SW,232,0.0,1.0,90,0.00,,,0.00,0,Wunderground v.1.15,2013-02-06 03:30:00,
2013-02-05 22:35:00,38.0,35.6,29.95,SW,232,0.0,1.0,91,0.00,,,0.00,0,Wunderground v.1.15,2013-02-06 03:35:00,
2013-02-05 22:45:00,37.8,35.1,29.95,SW,232,0.0,1.0,90,0.00,,,0.00,0,Wunderground v.1.15,2013-02-06 03:45:00,
2013-02-05 22:50:00,37.7,35.0,29.95,SW,232,0.0,1.0,90,0.00,,,0.00,0,Wunderground v.1.15,2013-02-06 03:50:00,
2013-02-05 22:55:00,37.7,35.3,29.94,SW,232,0.0,1.0,91,0.00,,,0.00,0,Wunderground v.1.15,2013-02-06 03:55:00,
2013-02-05 23:00:00,37.5,34.8,29.95,SW,232,0.0,1.0,90,0.00,,,0.00,0,Wunderground v.1.15,2013-02-06 04:00:00,
2013-02-05 23:05:00,37.3,34.9,29.95,SW,232,0.0,1.0,91,0.00,,,0.00,0,Wunderground v.1.15,2013-02-06 04:05:00,
2013-02-05 23:15:00,37.1,34.7,29.95,SW,232,0.0,1.0,91,0.00,,,0.00,0,Wunderground v.1.15,2013-02-06 04:15:00,
2013-02-05 23:20:00,36.8,34.4,29.95,SW,232,0.0,1.0,91,0.00,,,0.00,0,Wunderground v.1.15,2013-02-06 04:20:00,
2013-02-05 23:25:00,36.9,34.8,29.96,SW,232,0.0,1.0,92,0.00,,,0.00,0,Wunderground v.1.15,2013-02-06 04:25:00,
2013-02-05 23:30:00,37.0,34.9,29.96,SW,232,0.0,1.0,92,0.00,,,0.00,0,Wunderground v.1.15,2013-02-06 04:30:00,
2013-02-05 23:35:00,36.9,34.8,29.96,SW,232,0.0,1.0,92,0.00,,,0.00,0,Wunderground v.1.15,2013-02-06 04:35:00,
2013-02-05 23:40:00,36.8,34.7,29.96,SW,232,0.0,1.0,92,0.00,,,0.00,0,Wunderground v.1.15,2013-02-06 04:40:00,
2013-02-05 23:50:00,36.6,34.5,29.97,SW,232,0.0,1.0,92,0.00,,,0.00,0,Wunderground v.1.15,2013-02-06 04:50:00,
2013-02-05 23:55:00,36.4,34.3,29.96,SW,232,0.0,1.0,92,0.00,,,0.00,0,Wunderground v.1.15,2013-02-06 04:55:00,